Observations for Trim Market St
| Time | AQI | Temp °C | Hum % | Pres Pa | CO μg/m³ | H₂S μg/m³ | NO μg/m³ | NO₂ μg/m³ | O₃ μg/m³ | SO₂ μg/m³ | PM1 μg/m³ | PM2.5 μg/m³ | PM10 μg/m³ |
|---|---|---|---|---|---|---|---|---|---|---|---|---|---|
| Thursday 30 April 2026 | |||||||||||||
| 14:16 | 1 | 29 | 29 | 65,906 | 0 | 0 | 0 | 0 | 14.49 | 0 | 2.14 | 7.15 | 8.39 |
| 14:15 | 1 | 29 | 30 | 65,916 | 0 | 0 | 0 | 0 | 13.98 | 0 | 2.85 | 7.14 | 10.13 |
| 14:14 | 1 | 29.1 | 30 | 65,925 | 0.05 | 0 | 0 | 0 | 0 | 0 | 2.14 | 5.49 | 6.04 |
| 14:13 | 1 | 29.1 | 30 | 65,906 | 0.05 | 0 | 0 | 3.83 | 29.56 | 0 | 2.14 | 6.04 | 6.64 |
| 14:11 | 1 | 29.3 | 30 | 65,914 | 0.16 | 0 | 0 | 7.14 | 24.19 | 0 | 2.85 | 6.56 | 6.66 |
| 14:10 | 1 | 29.3 | 30 | 65,916 | 0.39 | 0 | 0 | 11.75 | 0 | 0 | 9.26 | 12 | 17.9 |
| 14:09 | 1 | 29.4 | 30 | 65,920 | 0.1 | 0 | 0 | 1.61 | 24.16 | 0 | 2.85 | 6.56 | 6.66 |
| 14:08 | 1 | 29.4 | 30 | 65,923 | 0.15 | 0 | 0 | 0 | 16.42 | 0 | 1.43 | 6.02 | 7.52 |
| 14:07 | 1 | 29.4 | 30 | 65,929 | 0.26 | 0 | 0 | 4.33 | 12.02 | 0 | 1.43 | 5.49 | 8.39 |
| 14:06 | 1 | 29.4 | 30 | 65,931 | 0.18 | 0 | 0 | 0 | 18.34 | 0 | 2.14 | 5.47 | 5.8 |
| 14:05 | 1 | 29.4 | 30 | 65,939 | 0.32 | 0 | 0 | 0 | 0 | 0 | 2.14 | 6 | 7.52 |
| 14:04 | 1 | 29.4 | 31 | 65,945 | 0.36 | 0 | 0 | 4.82 | 29.18 | 0 | 1.43 | 4.9 | 5.81 |
| 14:03 | 1 | 29.3 | 31 | 65,949 | 0.34 | 0 | 0 | 0 | 10.65 | 0 | 3.56 | 8.15 | 9.24 |
| 14:01 | 1 | 29.1 | 31 | 65,929 | 0.42 | 0 | 0 | 3.47 | 21.61 | 0 | 2.85 | 7.05 | 10.1 |
| 13:59 | 1 | 28.8 | 32 | 65,890 | 0.37 | 0 | 0 | 1.7 | 21.08 | 0 | 2.14 | 5.95 | 7.52 |
| 13:58 | 1 | 28.7 | 32 | 65,882 | 0.3 | 0 | 0 | 5.02 | 28.31 | 0 | 1.43 | 5.4 | 6.67 |
| 13:57 | 1 | 28.6 | 32 | 65,874 | 0.27 | 0 | 0 | 4.04 | 27.26 | 0 | 2.85 | 5.94 | 6.67 |
| 13:56 | 1 | 28.4 | 32 | 65,864 | 0.25 | 0 | 0 | 0.05 | 20.28 | 0 | 2.14 | 6.46 | 7.52 |
| 13:55 | 1 | 28.2 | 33 | 65,882 | 0.28 | 0 | 0 | 0 | 11.21 | 0 | 2.14 | 5.36 | 6.68 |
| 13:54 | 1 | 28.1 | 33 | 65,872 | 0.21 | 0 | 0 | 4.65 | 30.03 | 0 | 2.14 | 6.42 | 6.68 |